Villa Grove, CO

7:18 AM MST on January 18, 2017 (GMT -0700)
Monarch Pass

Weather History for KMYP - June, 2013

Change the Weather History Date:

Tuesday, June 18, 2013

  Actual Average (KGUC) Record (KGUC)
Temperature  
Mean Temperature 47 °F -  
Max Temperature 59 °F 72 °F 84 °F (2002)
Min Temperature 35 °F 37 °F 33 °F (2000)
Degree Days  
Heating Degree Days 18    
Moisture  
Dew Point 30 °F    
Average Humidity 53    
Maximum Humidity 100    
Minimum Humidity 26    
Precipitation  
Precipitation 0.00 in - - ()
Sea Level Pressure  
Sea Level Pressure 30.61 in    
Wind  
Wind Speed 15 mph (South)    
Max Wind Speed 28 mph    
Max Gust Speed 37 mph    
Visibility 10 miles    
Events Fog , Thunderstorm    
Averages and records for this station are not official NWS values.
T = Trace of Precipitation, MM = Missing Value Source: NWS Daily Summary

Daily Weather History Graph

Daily Weather History Graph

Search for Another Location

Airport or City:

Trip Planner

Search our weather history database for the weather conditions in past years. The results will help you decide how hot, cold, wet, or windy it might be!

Date:

Astronomy

Jun. 18, 2013 Rise Set
Actual Time 5:41 AM MDT 8:30 PM MDT
Civil Twilight 5:09 AM MDT 9:02 PM MDT
Nautical Twilight 4:29 AM MDT 9:42 PM MDT
Astronomical Twilight 3:44 AM MDT 10:27 PM MDT
Moon 3:21 PM MDT 1:47 AM MDT
Length of Visible Light 15h 53m
Length of Day
14h 49m
Waxing Gibbous, 71% of the Moon is Illuminated
Jun 18
Waxing Gibbous
Jun 23
Full
Jun 29
Last Quarter
Jul 8
New
Jul 15
First Quarter

Hourly Weather History & Observations

Time (MDT) Temp. Windchill Dew Point Humidity Pressure Visibility Wind Dir Wind Speed Gust Speed Precip Events Conditions
12:14 AM 39.2 °F 29.6 °F 33.8 °F 81% 30.66 in 10.0 mi ENE 19.6 mph - N/A   Scattered Clouds
12:34 AM 37.4 °F 26.9 °F 35.6 °F 93% 30.66 in 10.0 mi ENE 20.7 mph - N/A   Scattered Clouds
12:54 AM 37.4 °F 26.9 °F 35.6 °F 93% 30.66 in 10.0 mi ENE 20.7 mph - N/A   Mostly Cloudy
1:14 AM 37.4 °F 27.5 °F 35.6 °F 93% 30.65 in 10.0 mi ENE 18.4 mph - N/A   Scattered Clouds
1:34 AM 37.4 °F 27.8 °F 35.6 °F 93% 30.65 in 10.0 mi ENE 17.3 mph - N/A   Scattered Clouds
1:54 AM 37.4 °F 27.2 °F 35.6 °F 93% 30.64 in 10.0 mi ENE 19.6 mph - N/A   Mostly Cloudy
2:14 AM 37.4 °F 27.5 °F 35.6 °F 93% 30.64 in 10.0 mi ENE 18.4 mph - N/A   Mostly Cloudy
2:34 AM 37.4 °F 28.2 °F 35.6 °F 93% 30.64 in 5.0 mi ENE 16.1 mph - N/A   Overcast
2:54 AM 37.4 °F 29.8 °F 35.6 °F 93% 30.65 in 0.2 mi East 11.5 mph - N/A Fog Fog
3:14 AM 37.4 °F 30.8 °F 35.6 °F 93% 30.65 in 0.2 mi East 9.2 mph 12.7 mph N/A Fog Fog
3:34 AM 35.6 °F 30.7 °F 35.6 °F 100% 30.65 in 0.2 mi East 5.8 mph - N/A Fog Fog
3:54 AM 37.4 °F 33.8 °F 35.6 °F 93% 30.65 in 7.0 mi ESE 4.6 mph - N/A   Scattered Clouds
4:14 AM 41.0 °F 36.4 °F 32.0 °F 70% 30.65 in 10.0 mi SSE 6.9 mph - N/A   Clear
4:34 AM 41.0 °F 34.3 °F 32.0 °F 70% 30.64 in 10.0 mi SSE 11.5 mph - N/A   Clear
4:54 AM 41.0 °F 33.9 °F 32.0 °F 70% 30.65 in 10.0 mi South 12.7 mph - N/A   Clear
5:14 AM 41.0 °F 34.7 °F 32.0 °F 70% 30.65 in 10.0 mi SSE 10.4 mph 19.6 mph N/A   Clear
5:34 AM 41.0 °F 34.7 °F 32.0 °F 70% 30.65 in 10.0 mi South 10.4 mph - N/A   Clear
5:54 AM 41.0 °F 34.7 °F 32.0 °F 70% 30.65 in 10.0 mi South 10.4 mph - N/A   Clear
6:14 AM 42.8 °F 36.2 °F 32.0 °F 66% 30.65 in 10.0 mi South 12.7 mph - N/A   Clear
6:34 AM 42.8 °F 37.5 °F 32.0 °F 66% 30.65 in 10.0 mi SSE 9.2 mph - N/A   Clear
6:54 AM 42.8 °F 36.2 °F 32.0 °F 66% 30.65 in 10.0 mi South 12.7 mph - N/A   Clear
7:14 AM 44.6 °F 39.7 °F 32.0 °F 61% 30.65 in 10.0 mi SSE 9.2 mph - N/A   Clear
7:34 AM 44.6 °F 40.2 °F 32.0 °F 61% 30.65 in 10.0 mi SSE 8.1 mph - N/A   Clear
7:54 AM 46.4 °F 42.4 °F 32.0 °F 57% 30.66 in 10.0 mi SE 8.1 mph - N/A   Clear
8:14 AM 48.2 °F - 33.8 °F 58% 30.65 in 10.0 mi South 6.9 mph - N/A   Clear
8:34 AM 50.0 °F - 33.8 °F 54% 30.66 in 10.0 mi SSE 9.2 mph - N/A   Clear
8:54 AM 50.0 °F - 35.6 °F 58% 30.66 in 10.0 mi SSE 6.9 mph - N/A   Clear
9:14 AM 50.0 °F - 33.8 °F 54% 30.66 in 10.0 mi South 8.1 mph - N/A   Clear
9:34 AM 51.8 °F - 33.8 °F 50% 30.66 in 10.0 mi South 6.9 mph - N/A   Clear
9:54 AM 53.6 °F - 32.0 °F 44% 30.65 in 10.0 mi South 11.5 mph 17.3 mph N/A   Clear
10:14 AM 51.8 °F - 33.8 °F 50% 30.65 in 10.0 mi SSW 9.2 mph 17.3 mph N/A   Scattered Clouds
10:34 AM 53.6 °F - 33.8 °F 47% 30.65 in 10.0 mi SSW 8.1 mph 11.5 mph N/A   Scattered Clouds
10:54 AM 53.6 °F - 33.8 °F 47% 30.65 in 10.0 mi SSW 10.4 mph 19.6 mph N/A   Clear
11:14 AM 53.6 °F - 32.0 °F 44% 30.65 in 10.0 mi SSW 10.4 mph - N/A   Clear
11:34 AM 55.4 °F - 23.0 °F 29% 30.64 in 10.0 mi WSW 15.0 mph 25.3 mph N/A   Clear
11:54 AM 55.4 °F - 23.0 °F 29% 30.64 in 10.0 mi SW 15.0 mph 21.9 mph N/A   Scattered Clouds
12:14 PM 55.4 °F - 21.2 °F 26% 30.63 in 10.0 mi WSW 17.3 mph 23.0 mph N/A   Scattered Clouds
12:34 PM 55.4 °F - 26.6 °F 33% 30.63 in 10.0 mi SW 8.1 mph - N/A Thunderstorm Mostly Cloudy
12:54 PM 53.6 °F - 26.6 °F 35% 30.62 in 10.0 mi SSW 27.6 mph 35.7 mph N/A Thunderstorm Thunderstorm
1:14 PM 50.0 °F - 30.2 °F 47% 30.62 in 10.0 mi SSW 24.2 mph 28.8 mph N/A   Mostly Cloudy
1:34 PM 50.0 °F - 26.6 °F 40% 30.62 in 10.0 mi SSW 18.4 mph 24.2 mph N/A   Mostly Cloudy
1:54 PM 51.8 °F - 32.0 °F 47% 30.62 in 10.0 mi South 18.4 mph - N/A   Mostly Cloudy
2:14 PM 53.6 °F - 30.2 °F 41% 30.60 in 10.0 mi SW 23.0 mph 28.8 mph N/A   Scattered Clouds
2:34 PM 55.4 °F - 28.4 °F 36% 30.60 in 10.0 mi SW 24.2 mph 31.1 mph N/A   Clear
2:54 PM 59.0 °F - 32.0 °F 36% 30.59 in 10.0 mi SW 20.7 mph 25.3 mph N/A   Clear
3:14 PM 55.4 °F - 32.0 °F 41% 30.58 in 10.0 mi SW 18.4 mph 27.6 mph N/A   Clear
3:34 PM 51.8 °F - 28.4 °F 41% 30.58 in 10.0 mi SSW 27.6 mph 35.7 mph N/A   Clear
3:54 PM 53.6 °F - 26.6 °F 35% 30.57 in 10.0 mi SSW 25.3 mph - N/A Thunderstorm Scattered Clouds
4:14 PM 55.4 °F - 28.4 °F 36% 30.56 in 10.0 mi SSW 19.6 mph 28.8 mph N/A Thunderstorm Scattered Clouds
4:34 PM 55.4 °F - 28.4 °F 36% 30.55 in 10.0 mi South 18.4 mph 27.6 mph N/A Thunderstorm Clear
4:54 PM 55.4 °F - 28.4 °F 36% 30.55 in 10.0 mi SSW 21.9 mph 29.9 mph N/A   Clear
5:14 PM 55.4 °F - 28.4 °F 36% 30.55 in 10.0 mi SSW 24.2 mph 28.8 mph N/A   Clear
5:34 PM 59.0 °F - 28.4 °F 31% 30.54 in 10.0 mi WSW 17.3 mph 23.0 mph N/A   Clear
5:54 PM 55.4 °F - 28.4 °F 36% 30.54 in 10.0 mi WSW 16.1 mph 19.6 mph N/A   Clear
6:14 PM 55.4 °F - 26.6 °F 33% 30.53 in 10.0 mi SSW 24.2 mph 36.8 mph N/A   Clear
6:34 PM 53.6 °F - 26.6 °F 35% 30.53 in 10.0 mi SW 13.8 mph - N/A   Clear
6:54 PM 53.6 °F - 26.6 °F 35% 30.53 in 10.0 mi SW 10.4 mph - N/A   Scattered Clouds
7:14 PM 51.8 °F - 26.6 °F 38% 30.54 in 10.0 mi SW 10.4 mph - N/A   Mostly Cloudy
7:34 PM 51.8 °F - 28.4 °F 41% 30.54 in 10.0 mi SSW 3.5 mph - N/A   Scattered Clouds
7:54 PM 53.6 °F - 28.4 °F 38% 30.54 in 10.0 mi SW 3.5 mph - N/A   Scattered Clouds
8:14 PM 51.8 °F - 28.4 °F 41% 30.54 in 10.0 mi South 5.8 mph - N/A   Mostly Cloudy
8:34 PM 51.8 °F - 28.4 °F 41% 30.54 in 10.0 mi South 8.1 mph - N/A   Mostly Cloudy
8:54 PM 50.0 °F - 26.6 °F 40% 30.53 in 10.0 mi SSW 8.1 mph - N/A   Mostly Cloudy
9:14 PM 50.0 °F - 26.6 °F 40% 30.53 in 10.0 mi SW 10.4 mph - N/A   Mostly Cloudy
9:34 PM 50.0 °F - 28.4 °F 43% 30.53 in 10.0 mi SW 17.3 mph - N/A   Scattered Clouds
9:54 PM 50.0 °F - 26.6 °F 40% 30.55 in 10.0 mi SW 18.4 mph 25.3 mph N/A   Clear
10:14 PM 50.0 °F - 24.8 °F 37% 30.55 in 10.0 mi SW 16.1 mph - N/A   Clear
10:34 PM 48.2 °F - 24.8 °F 40% 30.55 in 10.0 mi SW 12.7 mph - N/A   Clear
10:54 PM 46.4 °F 40.4 °F 23.0 °F 40% 30.55 in 10.0 mi SW 13.8 mph - N/A   Clear
11:14 PM 46.4 °F 40.4 °F 21.2 °F 37% 30.55 in 10.0 mi SW 13.8 mph - N/A   Clear
11:34 PM 46.4 °F 40.4 °F 19.4 °F 34% 30.55 in 10.0 mi SW 13.8 mph - N/A   Clear
11:54 PM 48.2 °F - 15.8 °F 27% 30.55 in 10.0 mi WSW 13.8 mph - N/A   Clear